Saint Petersburg, FL

5:19 PM EST on December 07, 2016 (GMT -0500)
Whitted

Weather History for KSPG - December, 2011

Change the Weather History Date:

Friday, December 16, 2011

  Actual Average Record
Temperature  
Mean Temperature 72 °F -  
Max Temperature 77 °F 70 °F 82 °F (1948)
Min Temperature 66 °F 56 °F 35 °F (1968)
Cooling Degree Days 6    
Growing Degree Days 22 (Base 50)    
Moisture  
Dew Point 63 °F    
Average Humidity 75    
Maximum Humidity 90    
Minimum Humidity 60    
Precipitation  
Precipitation 0.00 in - - ()
Sea Level Pressure  
Sea Level Pressure 30.17 in    
Wind  
Wind Speed 5 mph (ENE)    
Max Wind Speed 9 mph    
Max Gust Speed -    
Visibility 10 miles    
Events      
Averages and records for this station are not official NWS values.
T = Trace of Precipitation, MM = Missing Value Source: NWS Daily Summary

Daily Weather History Graph

Daily Weather History Graph

Search for Another Location

Airport or City:

Trip Planner

Search our weather history database for the weather conditions in past years. The results will help you decide how hot, cold, wet, or windy it might be!

Date:

Astronomy

Dec. 16, 2011 Rise Set
Actual Time 7:14 AM EST 5:37 PM EST
Civil Twilight 6:48 AM EST 6:03 PM EST
Nautical Twilight 6:19 AM EST 6:32 PM EST
Astronomical Twilight 5:50 AM EST 7:01 PM EST
Moon 11:39 PM EST (12/16) 11:26 AM EST (12/16)
Length of Visible Light 11h 15m
Length of Day
10h 23m
Waning Gibbous, 65% of the Moon is Illuminated
Dec 16
Waning Gibbous
Dec 17
Last Quarter
Dec 24
New
Jan 1
First Quarter
Jan 9
Full

Hourly Weather History & Observations

Time (EST) Temp. Dew Point Humidity Pressure Visibility Wind Dir Wind Speed Gust Speed Precip Events Conditions
12:53 AM 68.0 °F 64.0 °F 87% 30.17 in 10.0 mi East 3.5 mph - N/A   Overcast
1:53 AM 68.0 °F 64.0 °F 87% 30.17 in 10.0 mi ESE 5.8 mph - N/A   Overcast
2:53 AM 68.0 °F 64.0 °F 87% 30.16 in 10.0 mi ESE 6.9 mph - N/A   Overcast
5:53 AM 66.9 °F 63.0 °F 87% 30.15 in 10.0 mi ESE 6.9 mph - N/A   Clear
7:53 AM 66.0 °F 63.0 °F 90% 30.17 in 10.0 mi ESE 9.2 mph - N/A   Clear
8:53 AM 68.0 °F 63.0 °F 84% 30.18 in 10.0 mi SE 9.2 mph - N/A   Clear
9:53 AM 70.0 °F 64.9 °F 84% 30.19 in 10.0 mi East 3.5 mph - N/A   Clear
10:53 AM 73.0 °F 64.9 °F 76% 30.20 in 10.0 mi Calm Calm - N/A   Clear
11:53 AM 77.0 °F 62.1 °F 60% 30.18 in 10.0 mi Calm Calm - N/A   Mostly Cloudy
12:53 PM 75.9 °F 63.0 °F 64% 30.16 in 10.0 mi North - - N/A   Mostly Cloudy
1:53 PM 75.9 °F 64.9 °F 69% 30.15 in 10.0 mi ENE 4.6 mph - N/A   Scattered Clouds
2:53 PM 73.9 °F 64.0 °F 71% 30.14 in 10.0 mi East 5.8 mph - N/A   Mostly Cloudy
3:53 PM 73.0 °F 63.0 °F 71% 30.14 in 10.0 mi North - - N/A   Overcast
4:53 PM 73.9 °F 60.1 °F 62% 30.15 in 10.0 mi North 6.9 mph - N/A   Overcast
5:53 PM 73.0 °F 60.1 °F 64% 30.16 in 10.0 mi North 6.9 mph - N/A   Overcast
6:53 PM 72.0 °F 57.9 °F 61% 30.17 in 10.0 mi North 5.8 mph - N/A   Overcast
7:53 PM 71.1 °F 59.0 °F 66% 30.18 in 10.0 mi NNE 5.8 mph - N/A   Overcast
8:53 PM 70.0 °F 61.0 °F 73% 30.19 in 10.0 mi NE 3.5 mph - N/A   Overcast
9:53 PM 70.0 °F 62.1 °F 76% 30.18 in 10.0 mi NNE 3.5 mph - N/A   Mostly Cloudy
11:53 PM 68.0 °F 62.1 °F 81% 30.17 in 10.0 mi Calm Calm - N/A   Clear